{"data":{"norad_id":61887,"epoch":"2026-05-25T03:01:44.809248Z","epoch_age_seconds":70944,"freshness":"FRESH","line1":"1 61887U 24204P   26145.12621307  .00000631  00000+0  29816-4 0  9991","line2":"2 61887  53.1596 131.0999 0001074  91.7578 268.3548 15.34394846 86818","mean_motion":15.34394846,"eccentricity":0.0001074,"inclination_deg":53.1596,"raan_deg":131.0999,"arg_perigee_deg":91.7578,"mean_anomaly_deg":268.3548,"bstar":2.9816e-5,"rev_number":8681,"period_min":93.848073313979,"perigee_km":461.9838511371,"apogee_km":463.45326691118,"semimajor_km":6840.8555590241,"source":"CELESTRAK","updated_at":"2026-05-25T13:38:19.477899Z"}}